Terminal Aerodrome Forecast
Issued by NWS Cheyenne, WY

Home | Current Version | Previous Version | Text Only | Print | Product List | Glossary On
Versions: 1 2 3 4 5 6 7 8 9 10 11 12 13 14 15 16 17 18 19 20 21 22 23 24 25 26 27 28 29 30 31 32 33 34 35 36 37 38 39 40 41
000
FTUS45 KCYS 011125
TAFCYS
TAF
KCYS 011125Z 0112/0212 35013G20KT P6SM OVC009
     FM011500 34013G20KT P6SM BKN030
     FM012100 34014G22KT P6SM SCT250
     FM020000 24007KT P6SM SCT150
     FM020700 27015G23KT P6SM OVC080=

USA.gov is the U.S. government's official web portal to all federal, state and local government web resources and services.